Regional Weather Roundup
Issued by NWS

Home | Current Version | Previous Version | Text Only | Print | Product List | Glossary On
Versions: 1 2 3 4 5 6 7 8 9 10 11 12 13 14 15 16 17 18 19 20 21 22 23 24 25 26 27 28 29 30 31 32 33 34 35 36 37 38 39 40 41 42 43 44 45 46 47 48 49
000
ASPQ40 PGUM 201412
RWRPQ
WEATHER ROUNDUP FOR THE MARIANAS AND MICRONESIA
NATIONAL WEATHER SERVICE TIYAN GU
1200 AM CHST SUN SEP 21 2014

GUZ001>004-201500-
MARIANA ISLANDS-

CITY           SKY/WX    TMP DP  RH WIND       PRES   REMARKS
GUAM AIRPORT   PTCLDY    82  77  83 E5        29.84F HX  91
ANDERSEN AFB   CLEAR     81  77  89 E8        29.84
ROTA AIRPORT   NOT AVBL
TINIAN AP      NOT AVBL
SAIPAN AP      CLEAR     81  79  94 N3        29.83F

$$

PMZ161-201500-
REPUBLIC OF PALAU-

CITY           SKY/WX    TMP DP  RH WIND       PRES   REMARKS
KOROR AP       NOT AVBL
KOROR WSO      CLOUDY    79  73  83 N3        29.85F

$$

PMZ171>174-201500-
FEDERATED STATES OF MICRONESIA-

CITY           SKY/WX    TMP DP  RH WIND       PRES   REMARKS
YAP AIRPORT    MOCLDY    81  77  89 N9        29.81F
CHUUK AP       NOT AVBL
POHNPEI AP     NOT AVBL
POHNPEI WSO    LGT RAIN  77  75  94 S6        29.82F
KOSRAE AP      NOT AVBL

$$

PMZ181-201500-
REPUBLIC OF THE MARSHALL ISLANDS-

CITY           SKY/WX    TMP DP  RH WIND       PRES   REMARKS
KWAJALEIN AP   PTCLDY    81  75  83 SW13      29.77F
MAJURO AP      NOT AVBL
MAJURO WSO     MOCLDY    82  75  78 SW12      29.75F

$$




USA.gov is the U.S. government's official web portal to all federal, state and local government web resources and services.